Voltar ao catálogo

Lobachevsky

AtivoRádio AmadorSSO
NORAD 67284·PAYLOAD·🇷🇺 Russia

Lançado Dec 28, 2025 de Vostochny Cosmodrome

Loading…

Próximas Passagens (próximas 24 horas)

TLE

AtualizadoSource: Space-Track

Época: Sep 14, 2026, 10:28 UTC

1 67284U 25313AN  26257.43675007  .00003967  00000-0  16826-3 0  9996
2 67284  97.3849 330.7363 0011648  52.1276 308.1012 15.23628885 39541

Acompanhe Lobachevsky em tempo real com AllMySat

Download on the App Store